Shelby, NC

12:39 PM EDT on March 23, 2017 (GMT -0400)
Shelby Municipal

Weather History for KEHO - April, 2014

Change the Weather History Date:

Tuesday, April 8, 2014

  Actual Average (KHKY) Record (KHKY)
Temperature  
Mean Temperature 58 °F -  
Max Temperature 63 °F 66 °F 85 °F (1959)
Min Temperature 52 °F 43 °F 25 °F (2007)
Degree Days  
Heating Degree Days 8    
Growing Degree Days 8 (Base 50)    
Moisture  
Dew Point 46 °F    
Average Humidity 70    
Maximum Humidity 100    
Minimum Humidity 42    
Precipitation  
Precipitation 0.00 in - - ()
Sea Level Pressure  
Sea Level Pressure 29.67 in    
Wind  
Wind Speed 4 mph (WNW)    
Max Wind Speed 12 mph    
Max Gust Speed 9 mph    
Visibility 9 miles    
Events      
Averages and records for this station are not official NWS values.
T = Trace of Precipitation, MM = Missing Value Source: NWS Daily Summary

Daily Weather History Graph

Daily Weather History Graph

Search for Another Location

Airport or City:

Trip Planner

Search our weather history database for the weather conditions in past years. The results will help you decide how hot, cold, wet, or windy it might be!

Date:

Astronomy

Apr. 08, 2014 Rise Set
Actual Time 7:03 AM EDT 7:53 PM EDT
Civil Twilight 6:37 AM EDT 8:19 PM EDT
Nautical Twilight 6:07 AM EDT 8:49 PM EDT
Astronomical Twilight 5:35 AM EDT 9:21 PM EDT
Moon 1:58 PM EDT (4/8) 3:02 AM EDT (4/8)
Length of Visible Light 13h 41m
Length of Day
12h 50m
Waxing Gibbous, 62% of the Moon is Illuminated
Apr 8
Waxing Gibbous
Apr 15
Full
Apr 22
Last Quarter
Apr 29
New
May 6
First Quarter

Hourly Weather History & Observations

Time (EDT) Temp. Dew Point Humidity Pressure Visibility Wind Dir Wind Speed Gust Speed Precip Events Conditions
12:15 AM 53.1 °F 53.1 °F 100% 29.68 in 2.5 mi Calm Calm - N/A   Overcast
12:35 AM 53.1 °F 53.1 °F 100% 29.67 in 4.0 mi Calm Calm - N/A   Overcast
1:00 AM 53.1 °F 53.1 °F 100% 29.67 in 4.0 mi Calm Calm - N/A   Overcast
1:15 AM 53.2 °F 53.2 °F 100% 29.67 in 5.0 mi Calm Calm - N/A   Overcast
1:35 AM 53.6 °F 53.6 °F 100% 29.66 in 4.0 mi Calm Calm - N/A   Overcast
1:55 AM 53.1 °F 53.1 °F 100% 29.66 in 1.5 mi Calm Calm - N/A   Light Drizzle
2:15 AM 53.6 °F 53.6 °F 100% 29.65 in 4.0 mi Calm Calm - N/A   Overcast
2:35 AM 54.0 °F 54.0 °F 100% 29.65 in 4.0 mi SW 3.5 mph - N/A   Mostly Cloudy
2:55 AM 54.5 °F 54.5 °F 100% 29.64 in 4.0 mi Calm Calm - N/A   Mostly Cloudy
3:15 AM 53.6 °F 53.6 °F 100% 29.63 in 2.0 mi Calm Calm - N/A   Overcast
3:40 AM 54.1 °F 54.1 °F 100% 29.62 in 1.5 mi South 3.5 mph - N/A   Mist
3:55 AM 54.3 °F 54.3 °F 100% 29.62 in 3.0 mi South 3.5 mph - N/A   Clear
4:15 AM 55.4 °F 55.4 °F 100% 29.62 in 7.0 mi South 5.8 mph - N/A   Clear
4:35 AM 55.4 °F 55.4 °F 100% 29.60 in 10.0 mi SSW 4.6 mph - N/A   Clear
5:00 AM 55.2 °F 55.2 °F 100% 29.62 in 10.0 mi SSW 5.8 mph - N/A   Mostly Cloudy
5:15 AM 55.0 °F 55.0 °F 100% 29.62 in 10.0 mi WSW 4.6 mph - N/A   Mostly Cloudy
5:35 AM 54.9 °F 54.9 °F 100% 29.63 in 10.0 mi WSW 4.6 mph - N/A   Overcast
5:55 AM 54.5 °F 54.5 °F 100% 29.63 in 10.0 mi WSW 5.8 mph - N/A   Overcast
6:15 AM 54.5 °F 54.5 °F 100% 29.64 in 10.0 mi West 4.6 mph - N/A   Overcast
6:35 AM 54.1 °F 54.1 °F 100% 29.64 in 10.0 mi WSW 8.1 mph - N/A   Overcast
6:55 AM 53.8 °F 53.8 °F 100% 29.64 in 10.0 mi West 5.8 mph - N/A   Mostly Cloudy
7:15 AM 53.1 °F 52.9 °F 99% 29.64 in 10.0 mi West 3.5 mph - N/A   Scattered Clouds
7:35 AM 52.9 °F 52.5 °F 99% 29.64 in 10.0 mi WNW 3.5 mph - N/A   Clear
7:55 AM 52.2 °F 51.8 °F 99% 29.66 in 10.0 mi West 3.5 mph - N/A   Clear
8:15 AM 52.3 °F 52.0 °F 99% 29.67 in 10.0 mi Calm Calm - N/A   Clear
8:35 AM 52.3 °F 52.0 °F 99% 29.68 in 10.0 mi West 3.5 mph - N/A   Clear
8:55 AM 52.9 °F 51.4 °F 95% 29.67 in 10.0 mi NW 5.8 mph - N/A   Clear
9:15 AM 53.1 °F 48.4 °F 84% 29.68 in 10.0 mi NW 4.6 mph - N/A   Clear
9:35 AM 53.2 °F 47.1 °F 80% 29.68 in 10.0 mi NW 6.9 mph - N/A   Clear
9:55 AM 53.6 °F 46.0 °F 76% 29.68 in 10.0 mi NW 5.8 mph - N/A   Clear
10:15 AM 54.5 °F 45.3 °F 71% 29.68 in 10.0 mi NNW 6.9 mph - N/A   Clear
10:35 AM 55.4 °F 45.0 °F 68% 29.68 in 10.0 mi NNW 6.9 mph - N/A   Clear
10:55 AM 56.1 °F 43.5 °F 63% 29.68 in 10.0 mi NNW 8.1 mph - N/A   Clear
11:15 AM 56.7 °F 42.4 °F 59% 29.69 in 10.0 mi NNW 9.2 mph - N/A   Clear
11:40 AM 57.4 °F 42.3 °F 57% 29.69 in 10.0 mi WNW 9.2 mph - N/A   Clear
11:55 AM 57.7 °F 41.9 °F 56% 29.69 in 10.0 mi NW 5.8 mph - N/A   Clear
12:15 PM 58.5 °F 41.9 °F 54% 29.69 in 10.0 mi WNW 5.8 mph - N/A   Clear
12:35 PM 59.5 °F 42.4 °F 53% 29.68 in 10.0 mi WNW 8.1 mph - N/A   Clear
12:55 PM 59.9 °F 41.2 °F 50% 29.68 in 10.0 mi North 6.9 mph - N/A   Clear
1:15 PM 60.1 °F 41.4 °F 50% 29.68 in 10.0 mi NW 5.8 mph 9.2 mph N/A   Clear
1:35 PM 61.0 °F 41.5 °F 49% 29.67 in 10.0 mi NNW 8.1 mph - N/A   Scattered Clouds
1:55 PM 61.5 °F 40.8 °F 47% 29.67 in 10.0 mi NW 9.2 mph - N/A   Scattered Clouds
2:15 PM 61.7 °F 39.4 °F 44% 29.67 in 10.0 mi NW 5.8 mph - N/A   Scattered Clouds
2:35 PM 61.7 °F 40.1 °F 45% 29.66 in 10.0 mi NNW 6.9 mph - N/A   Scattered Clouds
2:55 PM 63.0 °F 40.1 °F 43% 29.65 in 10.0 mi WNW 8.1 mph - N/A   Scattered Clouds
3:10 PM 63.5 °F 40.6 °F 43% 29.65 in 10.0 mi WSW 8.1 mph - N/A   Mostly Cloudy
3:35 PM 63.3 °F 40.8 °F 44% 29.64 in 10.0 mi NW 8.1 mph - N/A   Mostly Cloudy
4:00 PM 61.9 °F 40.3 °F 45% 29.64 in 10.0 mi WNW 6.9 mph - N/A   Scattered Clouds
4:15 PM 63.5 °F 39.7 °F 42% 29.65 in 10.0 mi WNW 8.1 mph - N/A   Mostly Cloudy
4:35 PM 61.9 °F 38.7 °F 42% 29.65 in 10.0 mi WNW 5.8 mph - N/A   Overcast
4:55 PM 61.9 °F 39.4 °F 43% 29.66 in 10.0 mi West 10.4 mph - N/A   Overcast
5:15 PM 61.9 °F 40.1 °F 45% 29.66 in 10.0 mi WNW 10.4 mph - N/A   Overcast
5:35 PM 60.4 °F 39.0 °F 45% 29.67 in 10.0 mi NW 6.9 mph - N/A   Overcast
5:55 PM 60.3 °F 39.7 °F 47% 29.67 in 10.0 mi NW 8.1 mph - N/A   Overcast
6:15 PM 60.1 °F 39.4 °F 46% 29.67 in 10.0 mi NW 8.1 mph - N/A   Overcast
6:35 PM 60.1 °F 38.3 °F 44% 29.67 in 10.0 mi NW 10.4 mph - N/A   Overcast
6:55 PM 59.4 °F 38.3 °F 46% 29.67 in 10.0 mi NW 9.2 mph - N/A   Overcast
7:15 PM 59.0 °F 37.4 °F 45% 29.68 in 10.0 mi NNW 11.5 mph - N/A   Mostly Cloudy
7:35 PM 58.5 °F 36.7 °F 44% 29.70 in 10.0 mi NNW 6.9 mph - N/A   Overcast
7:55 PM 58.1 °F 38.1 °F 47% 29.70 in 10.0 mi NNW 4.6 mph - N/A   Overcast
8:15 PM 57.6 °F 37.8 °F 48% 29.70 in 10.0 mi NW 3.5 mph - N/A   Overcast
8:35 PM 56.7 °F 38.8 °F 51% 29.71 in 10.0 mi NNW 5.8 mph - N/A   Overcast
8:55 PM 56.7 °F 38.1 °F 50% 29.71 in 10.0 mi NNW 4.6 mph - N/A   Overcast
9:15 PM 56.3 °F 39.0 °F 52% 29.72 in 10.0 mi NW 4.6 mph - N/A   Overcast
9:35 PM 55.9 °F 38.8 °F 53% 29.74 in 10.0 mi NW 5.8 mph - N/A   Overcast
9:55 PM 55.4 °F 39.9 °F 56% 29.75 in 10.0 mi WNW 5.8 mph - N/A   Overcast
10:15 PM 55.0 °F 39.7 °F 56% 29.75 in 10.0 mi WNW 5.8 mph - N/A   Overcast
10:35 PM 54.7 °F 39.9 °F 58% 29.75 in 10.0 mi WNW 3.5 mph - N/A   Overcast
10:55 PM 54.1 °F 39.9 °F 59% 29.75 in 10.0 mi NW 5.8 mph - N/A   Overcast
11:15 PM 54.0 °F 39.7 °F 59% 29.75 in 10.0 mi NW 4.6 mph - N/A   Overcast
11:35 PM 53.8 °F 39.7 °F 59% 29.75 in 10.0 mi WNW 4.6 mph - N/A   Overcast
11:55 PM 53.1 °F 39.9 °F 61% 29.75 in 10.0 mi WNW 4.6 mph - N/A   Overcast